G4CVN Weather Reports


Display with metric or nautical units.
time (UTC)temp
F
wind
direction
speed
MPH
gust
MPH
rain 1hr
in
rain 24hr
in
rain mn
in
humidity
%
barometer
mb
20260831050017 56 203 1.0 3.0 0.00 0.14 0.08 94 1011.2
20260831045037 57 203 1.0 3.0 0.00 0.14 0.08 94 1011.1
20260831044038 57 203 1.0 3.0 0.00 0.14 0.08 94 1011.0
20260831043038 57 203 1.0 3.0 0.00 0.14 0.08 94 1010.9
20260831042058 57 203 1.0 4.0 0.00 0.14 0.08 94 1011.0
20260831040017 57 203 2.0 4.0 0.00 0.14 0.08 94 1010.8
20260831035018 57 180 1.0 4.0 0.00 0.14 0.08 93 1010.8
20260831034017 57 180 1.0 3.0 0.00 0.14 0.08 93 1010.8
20260831033017 57 180 2.0 3.0 0.00 0.15 0.08 93 1010.7
20260831032017 57 180 2.0 4.0 0.00 0.15 0.08 93 1010.6
20260831031018 57 203 2.0 5.0 0.00 0.15 0.08 93 1010.5
20260831030038 57 180 3.0 6.0 0.00 0.15 0.08 93 1010.4
20260831025017 57 225 2.0 4.0 0.00 0.15 0.08 93 1010.3
20260831024016 57 180 2.0 5.0 0.01 0.15 0.08 92 1010.3
20260831023017 58 180 2.0 5.0 0.02 0.15 0.08 92 1010.3
20260831022017 58 203 2.0 5.0 0.02 0.15 0.08 92 1010.2
20260831021017 58 180 2.0 4.0 0.02 0.15 0.08 92 1010.1
20260831020017 59 225 3.0 6.0 0.02 0.15 0.08 92 1010.0
20260831015017 59 203 3.0 6.0 0.02 0.16 0.08 92 1010.1
20260831014017 60 203 3.0 6.0 0.02 0.15 0.07 93 1009.9
20260831013015 61 203 3.0 7.0 0.01 0.14 0.07 94 1009.9
20260831012017 61 203 3.0 5.0 0.01 0.14 0.06 94 1009.9
20260831011018 61 180 2.0 4.0 0.01 0.14 0.06 94 1009.9
20260831010017 60 203 1.0 4.0 0.02 0.14 0.06 94 1010.1
20260831005017 60 180 1.0 3.0 0.02 0.14 0.06 94 1009.9
20260831004017 60 225 1.0 4.0 0.06 0.13 0.06 93 1009.9
20260831003017 60 225 2.0 4.0 0.06 0.13 0.06 93 1009.9
20260831002017 60 225 3.0 7.0 0.06 0.13 0.06 92 1010.0
20260831001018 60 225 3.0 7.0 0.06 0.13 0.06 93 1010.0
20260831000017 61 203 3.0 6.0 0.05 0.13 0.05 93 1010.4
20260830235017 61 203 3.0 7.0 0.05 0.13 0.05 92 1010.4
20260830234017 61 225 2.0 7.0 0.00 0.09 0.00 93 1010.6
20260830233037 61 225 1.0 3.0 0.00 0.09 0.00 93 1010.5
20260830232017 61 225 1.0 2.0 0.00 0.09 0.00 92 1010.6
20260830231018 61 225 1.0 4.0 0.00 0.09 0.00 92 1010.7
20260830230019 61 248 2.0 4.0 0.00 0.09 0.00 92 1010.8
20260830225020 61 225 2.0 5.0 0.00 0.09 0.09 93 1010.8
20260830224018 61 225 2.0 4.0 0.00 0.09 0.09 93 1010.9
20260830223015 60 248 2.0 5.0 0.00 0.10 0.09 93 1011.1
20260830222016 60 225 2.0 6.0 0.00 0.10 0.09 92 1011.1
20260830221055 60 225 2.0 5.0 0.00 0.10 0.09 92 1011.2
20260830220016 60 203 2.0 4.0 0.00 0.11 0.09 92 1011.2
20260830215016 61 225 2.0 4.0 0.00 0.11 0.09 92 1011.1
20260830214015 61 225 2.0 4.0 0.00 0.11 0.09 92 1011.3
20260830213015 61 203 2.0 5.0 0.00 0.11 0.09 92 1011.4
20260830212015 61 225 3.0 6.0 0.05 0.12 0.09 92 1011.4
20260830211015 61 203 2.0 4.0 0.05 0.12 0.09 92 1011.3
20260830210015 62 203 2.0 4.0 0.05 0.13 0.09 92 1011.3
20260830205015 62 203 2.0 4.0 0.05 0.13 0.09 91 1011.3
20260830204037 63 203 3.0 8.0 0.05 0.13 0.09 90 1011.4
20260830203016 64 180 2.0 5.0 0.05 0.13 0.09 88 1011.4
20260830202016 65 180 4.0 8.0 0.00 0.09 0.05 87 1011.6
20260830201015 65 203 2.0 5.0 0.00 0.09 0.05 86 1011.1
20260830200015 64 225 1.0 3.0 0.00 0.09 0.05 87 1011.0
20260830195016 64 0.0 2.0 0.00 0.10 0.05 87 1011.4
20260830194015 64 0.0 1.0 0.00 0.11 0.05 87 1011.3
20260830193016 65 0.0 1.0 0.00 0.11 0.05 86 1011.3
20260830192035 65 0.0 0.0 0.00 0.12 0.05 85 1011.4
20260830191015 65 225 1.0 3.0 0.00 0.13 0.05 84 1011.4
20260830190015 65 203 1.0 3.0 0.00 0.13 0.05 84 1011.7
20260830185016 65 203 1.0 3.0 0.00 0.13 0.05 84 1011.9
20260830184015 65 203 1.0 4.0 0.00 0.14 0.05 84 1011.9
20260830183017 65 225 1.0 3.0 0.00 0.14 0.05 84 1011.9
20260830182015 65 225 1.0 4.0 0.00 0.15 0.05 83 1011.8
20260830181015 66 225 2.0 4.0 0.00 0.16 0.05 83 1011.9
20260830180016 66 225 3.0 6.0 0.00 0.17 0.05 82 1012.1
20260830175015 67 203 3.0 6.0 0.00 0.17 0.05 79 1012.3
20260830174015 67 180 3.0 7.0 0.00 0.18 0.05 79 1012.3
20260830173015 67 203 3.0 6.0 0.00 0.19 0.05 78 1012.2
20260830172015 67 203 3.0 8.0 0.00 0.20 0.05 77 1012.2
20260830171016 67 203 3.0 10.0 0.00 0.20 0.05 76 1012.2
20260830170016 68 203 3.0 7.0 0.00 0.21 0.05 75 1012.3
20260830165015 68 180 3.0 6.0 0.00 0.22 0.05 74 1012.3
20260830164035 68 225 3.0 8.0 0.00 0.23 0.05 74 1012.3
20260830163015 69 180 4.0 9.0 0.00 0.24 0.05 74 1012.5
20260830162035 69 180 3.0 7.0 0.00 0.24 0.05 75 1012.6
20260830161015 70 203 3.0 8.0 0.00 0.25 0.05 73 1012.7
20260830160016 71 203 3.0 8.0 0.00 0.25 0.05 72 1012.8
20260830155056 72 225 4.0 10.0 0.00 0.27 0.05 71 1012.8
20260830154018 72 203 4.0 8.0 0.00 0.27 0.05 70 1012.9
20260830153015 72 180 4.0 9.0 0.01 0.28 0.05 72 1012.9
20260830152015 71 203 4.0 7.0 0.01 0.28 0.05 72 1013.0
20260830151015 72 225 3.0 6.0 0.01 0.30 0.05 70 1013.0
20260830150015 72 203 4.0 11.0 0.01 0.30 0.05 68 1013.0
20260830145016 71 203 4.0 8.0 0.01 0.31 0.05 71 1013.1
20260830144015 71 203 3.0 7.0 0.01 0.31 0.05 73 1013.2
20260830143035 70 203 3.0 7.0 0.00 0.32 0.04 72 1013.2
20260830142015 71 203 4.0 8.0 0.00 0.33 0.04 70 1013.2
20260830141016 71 225 5.0 8.0 0.00 0.34 0.04 70 1013.3
20260830140035 71 180 5.0 11.0 0.00 0.35 0.04 71 1013.2
20260830135015 71 225 5.0 9.0 0.00 0.35 0.04 71 1013.4
20260830134016 71 203 4.0 8.0 0.00 0.37 0.04 74 1013.5
20260830133018 71 203 4.0 8.0 0.00 0.37 0.04 73 1013.6
20260830132019 71 180 2.0 5.0 0.00 0.39 0.04 76 1013.5
20260830131015 70 225 4.0 9.0 0.00 0.39 0.04 77 1013.7
20260830130015 69 203 3.0 6.0 0.00 0.40 0.04 77 1013.7
20260830125017 70 225 3.0 7.0 0.00 0.41 0.04 77 1013.8
20260830124016 70 203 3.0 5.0 0.00 0.42 0.04 77 1013.9
20260830123015 69 225 3.0 10.0 0.00 0.43 0.04 77 1014.0
20260830122015 68 203 3.0 6.0 0.00 0.43 0.04 80 1014.0
20260830121035 67 225 4.0 8.0 0.00 0.44 0.04 83 1014.1
20260830120017 67 203 2.0 5.0 0.00 0.45 0.04 84 1014.2
20260830115055 68 180 4.0 9.0 0.00 0.45 0.04 79 1014.3
20260830114036 70 203 3.0 5.0 0.00 0.46 0.04 74 1014.2
20260830113016 71 203 3.0 7.0 0.00 0.46 0.04 71 1014.0
20260830112017 71 225 3.0 7.0 0.00 0.47 0.04 73 1014.1
20260830111035 71 203 3.0 8.0 0.00 0.47 0.04 74 1014.2
20260830110016 70 203 2.0 5.0 0.00 0.48 0.04 75 1014.2
20260830105015 69 203 2.0 6.0 0.00 0.48 0.04 77 1014.3
20260830104016 69 203 2.0 4.0 0.00 0.49 0.04 75 1014.4
20260830103016 69 203 1.0 3.0 0.00 0.49 0.04 77 1014.4
20260830102016 69 203 2.0 5.0 0.00 0.50 0.04 79 1014.5
20260830101016 68 225 2.0 4.0 0.00 0.50 0.04 80 1014.6
20260830100016 67 225 2.0 4.0 0.00 0.50 0.04 84 1014.7
20260830095015 66 203 2.0 6.0 0.00 0.50 0.04 83 1014.8
20260830094016 66 225 3.0 6.0 0.00 0.50 0.04 81 1014.8
20260830093015 67 203 2.0 5.0 0.01 0.50 0.04 79 1014.8
20260830092016 67 203 2.0 4.0 0.01 0.51 0.04 80 1014.8
20260830091016 67 225 1.0 4.0 0.01 0.51 0.04 82 1014.7
20260830090056 66 225 2.0 5.0 0.01 0.51 0.04 83 1014.8
20260830085016 66 203 2.0 6.0 0.01 0.52 0.04 82 1014.8
20260830084015 66 180 3.0 5.0 0.01 0.52 0.04 83 1014.9
20260830083036 65 203 2.0 4.0 0.00 0.52 0.03 85 1014.9
20260830082015 65 203 2.0 6.0 0.00 0.52 0.03 86 1014.8
20260830081016 64 203 2.0 4.0 0.00 0.52 0.03 88 1014.7
20260830080035 63 203 2.0 5.0 0.00 0.52 0.03 89 1014.7
20260830075015 63 180 1.0 5.0 0.00 0.52 0.03 91 1014.5
20260830074015 62 225 1.0 4.0 0.00 0.53 0.03 92 1014.6
20260830073016 62 225 2.0 4.0 0.00 0.53 0.03 92 1014.6
20260830072016 61 203 2.0 4.0 0.00 0.53 0.03 93 1014.6
20260830071015 61 203 1.0 4.0 0.00 0.54 0.03 94 1014.6
20260830070015 60 203 1.0 4.0 0.00 0.54 0.03 94 1014.6
20260830065016 60 248 1.0 3.0 0.00 0.54 0.03 94 1014.4
20260830064016 60 248 1.0 2.0 0.00 0.54 0.03 94 1014.3
20260830063035 59 0.0 3.0 0.00 0.54 0.03 94 1014.1
20260830062015 59 0.0 0.0 0.00 0.54 0.03 93 1014.0
20260830061015 59 0.0 1.0 0.00 0.54 0.03 93 1014.0
20260830060015 59 0.0 2.0 0.00 0.54 0.03 93 1013.9
20260830055016 59 203 1.0 2.0 0.00 0.54 0.03 93 1013.9
20260830054036 59 203 1.0 3.0 0.00 0.54 0.03 93 1013.9
20260830053015 59 0.0 1.0 0.00 0.54 0.03 93 1013.8
20260830052036 60 0.0 2.0 0.00 0.54 0.03 92 1013.8
20260830051016 60 203 1.0 2.0 0.00 0.54 0.03 93 1013.7